STARLINK-1152, 45096

Orbit data source: Space-Track

STARLINK-1152, 45096 is a payload satellite owned by SpaceX/Seattle (US) in LEO that was launched on Wed, 29 Jan 2020 UTC via an FALCON 9 launch vehicle from the Air Force Eastern Test Range (AFETR). Payload-class satellites include a variety of spacecraft equipped with specific instruments for various scientific and technological missions. These include communications satellites like Starlink; space stations such as the ISS; scientific satellites like the Hubble; Earth observation satellites from companies like Planet Labs, Umbra, and HawkEye 360; GPS; miniature CubeSats for education and research; and military/defense satellites.

Loading next visibility...
Identifier
45096, 2020-006BE
Orbit
LEO
Country
Flag of USUS
Related business
Manufacturer
SpaceX/Seattle
Mission
Partially operational Commercial Communications
Bus & Motor
STARLINK, Unknown motor
Mass
260 kg wet, ~248 kg dry
Launch date (UTC)
2020-01-29 (6 years ago)
Launch vehicle
FALCON 9
Launch site
Air Force Eastern Test Range (AFETR)
Object type
Payload
Rocket body
Debris
Shape & HBR
Box + 1 Pan, 10.1 m
Radar Cross Section
13.562 m², Large (>1 m²)

Expand to show TLE details & history
Last TLE update: 12 hours ago

TLE from 12 hours ago
0 STARLINK-1152
1 45096U 20006BE  26111.98083616  .00058187  00000-0  12786-2 0  9999
2 45096  53.0396   1.4328 0002740  60.1676 299.9601 15.43475861344268
Epoch: 2026-04-21T23:32Z
TLE epoch observation values (Epoch: 2026-04-21T23:32:24.244Z)
Latitude
-0.00001°
Longitude
158.28294°
Altitude
435.82 km
Speed
7.652 km/s
True Right ascension
00h 05m 43s
True Declination
0° 00' 00"
Sunlit
Object was in daylight at epoch
Visualization orbit readout
Latitude
Unknown
Longitude
Unknown
Altitude
Unknown
Speed
Unknown
Apparent Right ascension
Unknown
Apparent Declination
Unknown
Sunlit
N/A
Visualization observer readout
Local Sidereal Time
18:50:10
Azimuth
Unknown
Elevation
Unknown
Doppler factor
Unknown
Orbital elements
Apogee altitude
438.005 km
Perigee altitude
434.27 km
Semi-major axis
6,814.275 km
Eccentricity
0.00027
Inclination
53.0396°
RAAN
1.4328°
Arg. of periapsis
60.1676°
True anomaly
299.93289°
Mean anomaly
299.9601°
Eccentric anomaly
299.9465°
Mean motion
3.85846 °/min
Orbital period
93.3 mins
BSTAR
0.0012786
Loading maneuver chart data...
Computing Atmospheric mass density...

Documentation

Showing up to 5 results
|